ITY614A LIRF-KBOS

Flight info

Callsign ITY614A
Flight time N/A
Altitude 36000
Route SOTOV P66 KPT L608 TEDGO DCT LIRSU DCT BUB L608 DENUT L610 KOPUL Q60 OKSAW DCT FELCA DCT FADZU DCT BANBA DCT LIMRI/M081F360 DCT 53N020W 53N030W 53N040W 52N050W DCT TUDEP/N0460F360 DCT EBONY DCT AJJAY OOSHN5
Aircraft A339/H-SADE1E2E3GHIJ3J5M1P2RWXY/LB2D1

Departure

Time N/A
Airport Rome–Fiumicino Leonardo da Vinci International Airport (LIRF)

Arrival

Time 2026-05-06 09:44
Airport Boston Logan International Airport (KBOS)
Time Latitude Longitude Altitude Speed Heading
2026-05-06 09:00 44.96395 -67.04821 35919 ft 402 kts 232°
2026-05-06 09:00 44.92887 -67.10958 35916 ft 403 kts 232°
2026-05-06 09:01 44.89508 -67.17219 35913 ft 401 kts 236°
2026-05-06 09:01 44.86461 -67.23749 35909 ft 399 kts 238°
2026-05-06 09:02 44.83433 -67.30276 35906 ft 400 kts 238°
2026-05-06 09:02 44.80387 -67.36843 35910 ft 399 kts 238°
2026-05-06 09:03 44.77371 -67.43340 35918 ft 398 kts 238°
2026-05-06 09:03 44.74343 -67.49853 35927 ft 397 kts 238°
2026-05-06 09:04 44.71337 -67.56306 35919 ft 396 kts 238°
2026-05-06 09:04 44.68333 -67.62738 35921 ft 395 kts 238°
2026-05-06 09:05 44.65327 -67.69154 35923 ft 394 kts 238°
2026-05-06 09:05 44.62307 -67.75588 35915 ft 395 kts 238°
2026-05-06 09:06 44.59305 -67.81975 35918 ft 394 kts 238°
2026-05-06 09:06 44.56294 -67.88363 35920 ft 395 kts 238°
2026-05-06 09:07 44.53265 -67.94769 35914 ft 394 kts 238°
2026-05-06 09:07 44.50258 -68.01121 35907 ft 395 kts 238°
2026-05-06 09:08 44.47218 -68.07526 35915 ft 396 kts 238°
2026-05-06 09:08 44.44172 -68.13928 35920 ft 397 kts 238°
2026-05-06 09:09 44.41128 -68.20312 35909 ft 397 kts 239°
2026-05-06 09:09 44.38057 -68.26745 35905 ft 398 kts 239°
2026-05-06 09:10 44.35490 -68.32108 35917 ft 397 kts 239°
2026-05-06 09:10 44.32429 -68.38490 35925 ft 405 kts 239°
2026-05-06 09:11 44.29317 -68.44958 35906 ft 399 kts 239°
2026-05-06 09:11 44.26226 -68.51369 35901 ft 398 kts 239°
2026-05-06 09:12 44.23125 -68.57790 35903 ft 399 kts 239°
2026-05-06 09:12 44.20036 -68.64171 35898 ft 401 kts 239°
2026-05-06 09:13 44.16910 -68.70616 35899 ft 401 kts 238°
2026-05-06 09:13 44.13815 -68.76990 35900 ft 401 kts 238°
2026-05-06 09:14 44.10677 -68.83428 35899 ft 401 kts 238°
2026-05-06 09:14 44.07564 -68.89806 35903 ft 401 kts 239°
2026-05-06 09:15 44.04413 -68.96246 35900 ft 402 kts 238°
2026-05-06 09:15 44.01284 -69.02627 35900 ft 402 kts 238°
2026-05-06 09:16 43.98151 -69.09004 35899 ft 401 kts 239°
2026-05-06 09:16 43.94999 -69.15404 35899 ft 403 kts 239°
2026-05-06 09:17 43.91859 -69.21763 35897 ft 403 kts 239°
2026-05-06 09:17 43.88697 -69.28161 35893 ft 403 kts 239°
2026-05-06 09:18 43.85536 -69.34546 35887 ft 402 kts 239°
2026-05-06 09:18 43.82362 -69.40938 35809 ft 403 kts 239°
2026-05-06 09:18 43.80773 -69.44143 35162 ft 409 kts 239°
2026-05-06 09:19 43.79153 -69.47405 34165 ft 418 kts 239°
2026-05-06 09:19 43.77522 -69.50682 33321 ft 421 kts 238°
2026-05-06 09:19 43.75870 -69.53989 32563 ft 422 kts 238°
2026-05-06 09:19 43.74060 -69.57210 31687 ft 428 kts 229°
2026-05-06 09:20 43.71777 -69.59836 30768 ft 437 kts 218°
2026-05-06 09:20 43.69070 -69.61789 30113 ft 441 kts 206°
2026-05-06 09:20 43.66188 -69.63134 29692 ft 435 kts 203°
2026-05-06 09:20 43.63346 -69.64418 29182 ft 431 kts 203°
2026-05-06 09:21 43.60508 -69.65699 28637 ft 427 kts 202°
2026-05-06 09:21 43.57706 -69.66962 28086 ft 425 kts 202°
2026-05-06 09:21 43.54906 -69.68227 27545 ft 421 kts 202°
2026-05-06 09:21 43.52105 -69.69488 27035 ft 417 kts 202°
2026-05-06 09:22 43.49356 -69.70727 26523 ft 414 kts 202°
2026-05-06 09:22 43.46653 -69.71943 25994 ft 411 kts 202°
2026-05-06 09:22 43.43948 -69.73161 25475 ft 408 kts 202°
2026-05-06 09:22 43.41249 -69.74372 24987 ft 404 kts 202°
2026-05-06 09:23 43.38610 -69.75555 24485 ft 400 kts 202°
2026-05-06 09:23 43.35983 -69.76734 24003 ft 397 kts 202°
2026-05-06 09:23 43.33368 -69.77908 23510 ft 394 kts 202°
2026-05-06 09:23 43.30793 -69.79060 23053 ft 391 kts 202°
2026-05-06 09:24 43.28189 -69.80228 22598 ft 388 kts 202°
2026-05-06 09:24 43.25656 -69.81361 22146 ft 385 kts 202°
2026-05-06 09:24 43.23113 -69.82497 21686 ft 382 kts 202°
2026-05-06 09:24 43.20623 -69.83608 21261 ft 379 kts 202°
2026-05-06 09:25 43.18139 -69.84717 20793 ft 376 kts 202°
2026-05-06 09:25 43.15648 -69.85826 20334 ft 373 kts 202°
2026-05-06 09:25 43.13199 -69.86917 19911 ft 370 kts 202°
2026-05-06 09:25 43.10773 -69.87997 19482 ft 367 kts 202°
2026-05-06 09:26 43.08339 -69.89081 19014 ft 365 kts 202°
2026-05-06 09:26 43.05943 -69.90144 18565 ft 362 kts 202°
2026-05-06 09:26 43.03517 -69.91219 18017 ft 362 kts 202°
2026-05-06 09:26 43.01131 -69.92276 17528 ft 360 kts 202°
2026-05-06 09:27 42.98785 -69.93311 17088 ft 357 kts 202°
2026-05-06 09:27 42.96435 -69.94348 16656 ft 354 kts 201°
2026-05-06 09:27 42.94090 -69.95382 16231 ft 351 kts 202°
2026-05-06 09:27 42.91788 -69.96398 15812 ft 347 kts 201°
2026-05-06 09:28 42.89503 -69.97407 15398 ft 344 kts 201°
2026-05-06 09:28 42.87254 -69.98399 14997 ft 340 kts 201°
2026-05-06 09:28 42.85003 -69.99394 14589 ft 337 kts 201°
2026-05-06 09:28 42.82766 -70.00379 14187 ft 334 kts 201°
2026-05-06 09:29 42.80595 -70.01335 13788 ft 331 kts 201°
2026-05-06 09:29 42.78411 -70.02295 13385 ft 328 kts 201°
2026-05-06 09:29 42.76243 -70.03251 12978 ft 325 kts 202°
2026-05-06 09:29 42.74142 -70.04276 12617 ft 321 kts 203°
2026-05-06 09:30 42.72042 -70.05312 12249 ft 318 kts 203°
2026-05-06 09:30 42.69975 -70.06336 11878 ft 315 kts 203°
2026-05-06 09:30 42.67936 -70.07344 11517 ft 311 kts 202°
2026-05-06 09:30 42.66002 -70.08550 11136 ft 306 kts 216°
2026-05-06 09:31 42.64518 -70.10580 10774 ft 304 kts 234°
2026-05-06 09:31 42.63638 -70.13195 10432 ft 304 kts 252°
2026-05-06 09:31 42.63250 -70.16009 10257 ft 297 kts 256°
2026-05-06 09:31 42.62890 -70.18716 10109 ft 289 kts 255°
2026-05-06 09:32 42.62545 -70.21334 10024 ft 278 kts 255°
2026-05-06 09:32 42.62209 -70.23878 9839 ft 272 kts 256°
2026-05-06 09:32 42.61878 -70.26373 9616 ft 268 kts 255°
2026-05-06 09:32 42.61549 -70.28865 9380 ft 264 kts 255°
2026-05-06 09:33 42.61225 -70.31304 8999 ft 266 kts 256°
2026-05-06 09:33 42.60897 -70.33772 8766 ft 262 kts 256°
2026-05-06 09:33 42.60576 -70.36197 8521 ft 259 kts 256°
2026-05-06 09:33 42.60262 -70.38568 8171 ft 261 kts 256°
2026-05-06 09:34 42.59937 -70.41009 7867 ft 259 kts 256°
2026-05-06 09:34 42.59624 -70.43376 7640 ft 256 kts 256°
2026-05-06 09:34 42.59304 -70.45779 7305 ft 256 kts 256°
2026-05-06 09:34 42.58992 -70.48119 7014 ft 256 kts 257°
2026-05-06 09:35 42.58672 -70.50517 6729 ft 254 kts 257°
2026-05-06 09:35 42.58363 -70.52844 6453 ft 253 kts 257°
2026-05-06 09:35 42.58049 -70.55183 6124 ft 253 kts 257°
2026-05-06 09:35 42.57732 -70.57553 5845 ft 252 kts 257°
2026-05-06 09:36 42.57427 -70.59837 5618 ft 249 kts 257°
2026-05-06 09:36 42.57112 -70.62170 5300 ft 250 kts 257°
2026-05-06 09:36 42.56802 -70.64482 5057 ft 247 kts 257°
2026-05-06 09:36 42.56498 -70.66741 4785 ft 246 kts 257°
2026-05-06 09:37 42.56189 -70.69034 4543 ft 243 kts 257°
2026-05-06 09:37 42.55885 -70.71287 4273 ft 242 kts 257°
2026-05-06 09:37 42.55581 -70.73535 3988 ft 242 kts 257°
2026-05-06 09:37 42.55378 -70.75034 3867 ft 239 kts 257°
2026-05-06 09:38 42.55080 -70.77228 3612 ft 239 kts 257°
2026-05-06 09:38 42.54779 -70.79446 3344 ft 238 kts 257°
2026-05-06 09:38 42.54483 -70.81631 3167 ft 234 kts 257°
2026-05-06 09:38 42.54189 -70.83796 3001 ft 230 kts 257°
2026-05-06 09:39 42.53906 -70.85872 2990 ft 220 kts 256°
2026-05-06 09:39 42.53637 -70.87856 2989 ft 210 kts 256°
2026-05-06 09:39 42.53376 -70.89763 2987 ft 200 kts 256°
2026-05-06 09:39 42.53081 -70.91567 2976 ft 188 kts 244°
2026-05-06 09:40 42.52252 -70.92793 2946 ft 175 kts 213°
2026-05-06 09:40 42.51122 -70.93468 2850 ft 179 kts 205°
2026-05-06 09:40 42.48769 -70.94562 2379 ft 177 kts 204°
2026-05-06 09:41 42.47615 -70.95112 2139 ft 175 kts 204°
2026-05-06 09:41 42.46471 -70.95670 1806 ft 174 kts 202°
2026-05-06 09:41 42.45340 -70.96179 1454 ft 164 kts 201°
2026-05-06 09:41 42.44339 -70.96629 1439 ft 141 kts 204°
2026-05-06 09:42 42.43470 -70.97061 1345 ft 126 kts 205°
2026-05-06 09:42 42.42669 -70.97504 1140 ft 125 kts 204°
2026-05-06 09:42 42.41848 -70.97923 977 ft 125 kts 204°
2026-05-06 09:42 42.41039 -70.98322 777 ft 124 kts 202°
2026-05-06 09:43 42.40214 -70.98695 608 ft 124 kts 201°
2026-05-06 09:43 42.39410 -70.99086 445 ft 123 kts 202°
2026-05-06 09:43 42.38609 -70.99486 282 ft 123 kts 200°
2026-05-06 09:43 42.37797 -70.99876 132 ft 123 kts 200°
2026-05-06 09:44 42.36994 -71.00266 24 ft 118 kts 200°
2026-05-06 09:44 42.36344 -71.00578 24 ft 75 kts 199°
2026-05-06 09:44 42.35956 -71.00768 26 ft 53 kts 199°
2026-05-06 09:44 42.35625 -71.00925 27 ft 40 kts 200°
2026-05-06 09:45 42.35410 -71.01035 28 ft 23 kts 200°
2026-05-06 09:45 42.35272 -71.01102 30 ft 15 kts 200°
2026-05-06 09:45 42.35205 -71.01180 31 ft 10 kts 248°
2026-05-06 09:45 42.35227 -71.01263 30 ft 10 kts 308°
2026-05-06 09:46 42.35276 -71.01350 29 ft 12 kts 305°
2026-05-06 09:46 42.35327 -71.01451 28 ft 15 kts 305°
2026-05-06 09:46 42.35402 -71.01589 27 ft 18 kts 307°
2026-05-06 09:46 42.35478 -71.01722 27 ft 13 kts 320°
2026-05-06 09:47 42.35543 -71.01717 27 ft 9 kts 28°
2026-05-06 09:47 42.35613 -71.01676 27 ft 11 kts 20°
2026-05-06 09:47 42.35690 -71.01639 28 ft 11 kts 18°
2026-05-06 09:47 42.35771 -71.01603 29 ft 12 kts 19°
2026-05-06 09:48 42.35858 -71.01562 29 ft 13 kts 19°
2026-05-06 09:48 42.35954 -71.01516 28 ft 15 kts 20°
2026-05-06 09:48 42.36062 -71.01463 27 ft 17 kts 19°
2026-05-06 09:48 42.36180 -71.01411 27 ft 17 kts 21°
2026-05-06 09:49 42.36330 -71.01336 27 ft 27 kts 19°
2026-05-06 09:49 42.36505 -71.01246 27 ft 26 kts 25°
2026-05-06 09:49 42.36680 -71.01162 24 ft 26 kts 17°
2026-05-06 09:49 42.36821 -71.01199 24 ft 19 kts 315°
2026-05-06 09:50 42.36922 -71.01321 24 ft 19 kts 316°
2026-05-06 09:50 42.37020 -71.01450 24 ft 19 kts 313°
2026-05-06 09:50 42.37116 -71.01585 24 ft 19 kts 314°
2026-05-06 09:50 42.37208 -71.01713 24 ft 19 kts 313°
2026-05-06 09:51 42.37290 -71.01841 24 ft 16 kts 280°
2026-05-06 09:51 42.37243 -71.01938 24 ft 8 kts 235°
2026-05-06 09:51 42.37233 -71.02018 24 ft 8 kts 274°
2026-05-06 09:51 42.37225 -71.02074 24 ft 6 kts 218°
2026-05-06 09:52 42.37179 -71.02087 24 ft 7 kts 178°
2026-05-06 09:52 42.37150 -71.02086 24 ft 0 kts 176°